Showing default

NUSAT-32 (ALBANIA-1), 55064

Orbit data source: Space-Track

NUSAT-32 (ALBANIA-1), 55064 is a payload satellite owned by URUGUS S.A. (AR) in SSO that was launched on Tue, 03 Jan 2023 UTC via an FALCON 9 launch vehicle from the Air Force Eastern Test Range (AFETR). Payload-class satellites include a variety of spacecraft equipped with specific instruments for various scientific and technological missions. These include communications satellites like Starlink; space stations such as the ISS; scientific satellites like the Hubble; Earth observation satellites from companies like Planet Labs, Umbra, and HawkEye 360; GPS; miniature CubeSats for education and research; and military/defense satellites.

Loading next visibility...
Identifier
55064, 2023-001BH
Orbit
SSO
Country
Flag of UnknownUnknown / ARGN
Related business
Manufacturer
URUGUS S.A.
Mission
Operational Commercial Imaging
Bus & Motor
NEWSAT V, Unknown motor
Mass
41.5 kg wet, 38.5 kg dry
Launch date (UTC)
2023-01-03 (3 years ago)
Launch vehicle
FALCON 9
Launch site
Air Force Eastern Test Range (AFETR)
Object type
Payload
Rocket body
Debris
Shape & HBR
Box, 1.0 m
Radar Cross Section
0.542 m², Medium (>0.1 m² and < 1m²)

Expand to show TLE details & history
Last TLE update: 8 hours ago

TLE from 8 hours ago
0 NUSAT-32 (ALBANIA-1)
1 55064U 23001BH  25299.30019351  .00084644  00000-0  90384-3 0  9998
2 55064  97.2112   2.2223 0005057 144.5243 215.6353 15.63638550157623
Epoch: 2025-10-26T07:12Z
TLE epoch observation values (Epoch: 2025-10-26T07:12:16.719Z)
Latitude
-0.00005°
Longitude
-140.76573°
Altitude
383.09 km
Speed
7.678 km/s
True Right ascension
00h 08m 53s
True Declination
0° 00' 00"
Sunlit
Object was in full shadow at epoch
Visualization orbit readout
Latitude
Unknown
Longitude
Unknown
Altitude
Unknown
Speed
Unknown
Apparent Right ascension
Unknown
Apparent Declination
Unknown
Sunlit
N/A
Visualization observer readout
Local Sidereal Time
10:14:25
Azimuth
Unknown
Elevation
Unknown
Doppler factor
Unknown
Orbital elements
Apogee altitude
377.471 km
Perigee altitude
370.642 km
Semi-major axis
6,752.194 km
Eccentricity
0.00051
Inclination
97.2112°
RAAN
2.2223°
Arg. of periapsis
144.5243°
True anomaly
215.60155°
Mean anomaly
215.6353°
Eccentric anomaly
215.61843°
Mean motion
3.91179 °/min
Orbital period
92.03 mins
BSTAR
0.00090384
Loading maneuver chart data...
Computing Atmospheric mass density...

Documentation

Showing up to 5 results
|